CW5988 Weather Reports


time (UTC)temp
F
wind
direction
speed
knots
gust
knots
rain 1hr
in
rain 24hr
in
rain mn
in
humidity
%
barometer
mb
20260508140924 53 294 7.0 16.5 0.00 0.00 0.00 85 1018.5
20260508140431 52 306 8.7 13.9 0.00 0.00 0.00 85 1018.5
20260508135936 52 252 5.2 18.2 0.00 0.00 0.00 85 1018.5
20260508135422 52 278 7.0 18.2 0.00 0.00 0.00 85 1018.4
20260508134928 52 232 7.0 19.1 0.00 0.00 0.00 85 1018.3
20260508134433 52 268 9.6 19.1 0.00 0.00 0.00 85 1018.3
20260508133934 52 263 9.6 19.1 0.00 0.00 0.00 85 1018.3
20260508133440 52 249 9.6 20.0 0.00 0.00 0.00 85 1018.2
20260508132924 52 275 12.2 20.0 0.00 0.00 0.00 84 1018.2
20260508132501 52 252 8.7 20.0 0.00 0.00 0.00 84 1018.2
20260508131925 53 280 9.6 20.9 0.00 0.00 0.00 85 1018.2
20260508131500 52 256 10.4 20.9 0.00 0.00 0.00 85 1018.2
20260508130925 52 258 5.2 17.4 0.00 0.00 0.00 84 1018.2
20260508130428 53 230 4.3 17.4 0.00 0.00 0.00 85 1018.2
20260508125932 53 222 5.2 12.2 0.00 0.00 0.00 85 1018.3
20260508125419 53 233 4.3 13.0 0.00 0.00 0.00 85 1018.2
20260508124927 53 268 6.1 15.6 0.00 0.00 0.00 84 1018.2
20260508124436 53 275 7.8 15.6 0.00 0.00 0.00 84 1018.2
20260508123922 53 211 6.1 15.6 0.00 0.00 0.00 84 1018.1
20260508123430 53 307 7.8 18.2 0.00 0.00 0.00 84 1018.2
20260508122932 53 277 9.6 18.2 0.00 0.00 0.00 84 1018.1
20260508122438 53 284 7.8 18.2 0.00 0.00 0.00 84 1018.1
20260508121956 53 310 4.3 9.6 0.00 0.00 0.00 84 1018.2
20260508121422 53 101 1.7 13.0 0.00 0.00 0.00 84 1018.2
20260508120931 53 209 5.2 13.9 0.00 0.00 0.00 85 1018.1
20260508120436 53 276 7.8 19.1 0.00 0.00 0.00 85 1018.1
20260508115923 53 261 4.3 19.1 0.00 0.00 0.00 85 1018.0
20260508115430 53 190 7.8 17.4 0.00 0.00 0.00 85 1018.0
20260508114935 53 314 7.0 17.4 0.00 0.00 0.00 85 1018.0
20260508114421 53 244 7.8 13.9 0.00 0.00 0.00 85 1018.2
20260508113958 53 313 3.5 12.2 0.00 0.00 0.00 85 1018.0
20260508113443 53 273 6.1 15.6 0.00 0.00 0.00 85 1018.0
20260508112928 53 251 7.0 15.6 0.00 0.00 0.00 85 1018.1
20260508112437 53 282 7.8 16.5 0.00 0.00 0.00 85 1018.2
20260508111921 53 296 8.7 16.5 0.00 0.00 0.00 85 1018.1
20260508111446 53 247 7.0 18.2 0.00 0.00 0.00 85 1018.0
20260508110934 53 263 5.2 14.8 0.00 0.00 0.00 85 1018.1
20260508110420 53 284 7.8 13.9 0.00 0.00 0.00 85 1018.1
20260508105928 53 231 5.2 14.8 0.00 0.00 0.00 85 1018.1
20260508105435 53 207 5.2 17.4 0.00 0.00 0.00 85 1018.0
20260508104922 53 280 9.6 17.4 0.00 0.00 0.00 85 1018.0
20260508104430 53 283 6.1 14.8 0.00 0.00 0.00 85 1018.2
20260508103936 53 273 5.2 14.8 0.00 0.00 0.00 85 1018.0
20260508103443 53 294 6.1 18.2 0.00 0.00 0.00 85 1018.1
20260508102928 53 278 8.7 18.2 0.00 0.00 0.00 85 1018.0
20260508102438 53 224 7.0 13.0 0.00 0.00 0.00 85 1018.0
20260508101924 53 310 7.0 16.5 0.00 0.00 0.00 85 1018.0
20260508101432 53 275 7.8 16.5 0.00 0.00 0.00 85 1018.0
20260508100921 53 278 5.2 13.0 0.00 0.00 0.00 85 1018.1
20260508100423 53 250 7.0 13.0 0.00 0.00 0.00 85 1018.1
20260508095928 53 261 6.1 14.8 0.00 0.00 0.00 85 1018.1
20260508095436 53 322 5.2 15.6 0.00 0.00 0.00 85 1018.2
20260508094944 53 197 7.0 15.6 0.00 0.00 0.00 85 1018.1
20260508094439 53 263 3.5 13.0 0.00 0.00 0.00 85 1018.2
20260508093926 53 295 1.7 14.8 0.00 0.00 0.00 85 1018.2
20260508093435 53 242 7.0 14.8 0.00 0.00 0.00 85 1018.1
20260508092939 53 212 3.5 11.3 0.00 0.00 0.00 85 1018.2
20260508092457 53 208 6.1 11.3 0.00 0.00 0.00 85 1018.3
20260508091921 53 261 4.3 11.3 0.00 0.00 0.00 85 1018.2
20260508091430 53 240 5.2 11.3 0.00 0.00 0.00 85 1018.2
20260508090937 53 197 3.5 10.4 0.00 0.00 0.00 85 1018.2
20260508090424 53 185 3.5 12.2 0.00 0.00 0.00 85 1018.1
20260508085931 53 1 2.6 12.2 0.00 0.00 0.00 85 1018.1
20260508085419 53 255 5.2 11.3 0.00 0.00 0.00 85 1018.0
20260508084921 53 264 2.6 12.2 0.00 0.00 0.00 85 1018.1
20260508084450 53 360 6.1 12.2 0.00 0.00 0.00 84 1018.2
20260508083936 53 249 3.5 11.3 0.00 0.00 0.00 84 1018.2
20260508083422 53 247 4.3 12.2 0.00 0.00 0.00 84 1018.1
20260508082931 53 296 4.3 12.2 0.00 0.00 0.00 84 1018.1
20260508082437 53 196 3.5 15.6 0.00 0.00 0.00 84 1018.2
20260508081924 53 301 7.0 15.6 0.00 0.00 0.00 84 1018.2
20260508081457 53 342 6.1 13.0 0.00 0.00 0.00 85 1018.2
20260508080922 53 200 4.3 11.3 0.00 0.00 0.00 85 1018.1
20260508080450 53 242 4.3 12.2 0.00 0.00 0.00 85 1018.2
20260508075937 53 268 5.2 13.9 0.00 0.00 0.00 84 1018.2
20260508075424 53 262 6.1 18.2 0.00 0.00 0.00 84 1018.2
20260508074929 53 261 7.8 18.2 0.00 0.00 0.00 84 1018.0
20260508074435 53 242 7.8 15.6 0.00 0.00 0.00 84 1017.9
20260508073935 53 270 7.8 14.8 0.00 0.00 0.00 84 1018.0
20260508073421 53 327 6.1 19.1 0.00 0.00 0.00 84 1017.9
20260508072927 53 272 6.1 19.1 0.00 0.00 0.00 84 1017.8
20260508072435 53 277 7.0 15.6 0.00 0.00 0.00 84 1017.9
20260508071942 53 300 6.1 14.8 0.00 0.00 0.00 84 1018.0
20260508071428 53 295 6.1 14.8 0.00 0.00 0.00 84 1017.9
20260508070936 53 280 6.1 17.4 0.00 0.00 0.00 84 1017.9
20260508070508 53 273 9.6 20.0 0.00 0.00 0.00 84 1017.9
20260508065926 53 258 8.7 20.0 0.00 0.00 0.00 84 1017.9
20260508065435 54 270 7.8 17.4 0.00 0.00 0.00 84 1018.0
20260508064921 54 278 7.0 18.2 0.00 0.00 0.00 84 1017.8
20260508064430 54 240 7.8 16.5 0.00 0.00 0.00 84 1017.9
20260508063937 54 265 8.7 15.6 0.00 0.00 0.00 84 1017.8
20260508063444 54 208 8.7 18.2 0.00 0.00 0.00 84 1017.9
20260508062946 54 188 10.4 18.2 0.00 0.00 0.00 84 1018.0
20260508062434 54 299 5.2 15.6 0.00 0.00 0.00 84 1018.0
20260508061923 54 225 7.8 20.0 0.00 0.00 0.00 84 1017.9
20260508061432 54 327 8.7 20.0 0.00 0.00 0.00 84 1017.9
20260508060921 54 177 7.8 17.4 0.00 0.00 0.00 84 1017.9
20260508060430 54 263 6.1 20.9 0.00 0.00 0.00 84 1018.0
20260508055937 54 256 12.2 25.2 0.00 0.00 0.00 84 1017.9
20260508055419 54 286 7.0 25.2 0.00 0.00 0.00 85 1017.9
20260508054926 54 304 10.4 22.6 0.00 0.00 0.00 85 1017.8
20260508054433 54 230 9.6 20.0 0.00 0.00 0.00 85 1017.9
20260508053921 54 305 10.4 24.3 0.00 0.00 0.00 85 1017.8
20260508053430 54 280 9.6 24.3 0.00 0.00 0.00 85 1017.9
20260508052935 54 308 7.8 13.9 0.00 0.00 0.00 85 1017.9
20260508052424 54 287 7.8 16.5 0.00 0.00 0.00 85 1017.9
20260508051931 54 259 7.8 16.5 0.00 0.00 0.00 85 1017.9
20260508051435 54 289 7.8 18.2 0.00 0.00 0.00 85 1018.0
20260508050923 54 274 11.3 21.7 0.00 0.00 0.00 85 1017.9
20260508050431 54 280 12.2 21.7 0.00 0.00 0.00 85 1017.9
20260508045936 54 242 9.6 18.2 0.00 0.00 0.00 86 1018.0
20260508045444 54 280 7.8 20.0 0.00 0.00 0.00 86 1017.9
20260508044931 54 268 10.4 20.0 0.00 0.00 0.00 86 1017.9
20260508044420 54 302 7.8 18.2 0.00 0.00 0.00 86 1017.9
20260508043922 54 287 10.4 17.4 0.00 0.00 0.00 86 1017.8
20260508043431 54 246 8.7 17.4 0.00 0.00 0.00 86 1017.8
20260508042938 54 259 7.0 14.8 0.00 0.00 0.00 86 1017.7
20260508042453 54 261 7.8 14.8 0.00 0.00 0.00 86 1017.7
20260508041921 54 251 7.0 14.8 0.00 0.00 0.00 86 1017.6
20260508041429 54 270 7.0 16.5 0.00 0.00 0.00 86 1017.6
20260508040937 54 251 8.7 16.5 0.00 0.00 0.00 86 1017.7
20260508040426 54 268 7.0 15.6 0.00 0.00 0.00 86 1017.6
20260508035929 54 276 7.0 15.6 0.00 0.00 0.00 86 1017.6
20260508035437 54 215 4.3 13.9 0.00 0.00 0.00 86 1017.5
20260508034923 54 322 4.3 14.8 0.00 0.00 0.00 86 1017.3
20260508034433 54 354 8.7 15.6 0.00 0.00 0.00 86 1017.3
20260508033920 54 253 6.1 16.5 0.00 0.00 0.00 86 1017.2
20260508033428 54 263 7.0 16.5 0.00 0.00 0.00 86 1017.2
20260508032934 54 244 7.0 13.0 0.00 0.00 0.00 86 1017.2
20260508032420 54 244 5.2 11.3 0.00 0.00 0.00 86 1017.2
20260508031921 54 285 5.2 14.8 0.00 0.00 0.00 86 1017.0
20260508031425 54 227 6.1 14.8 0.00 0.00 0.00 86 1017.0
20260508030932 54 258 5.2 13.9 0.00 0.00 0.00 86 1016.9
20260508030440 54 264 9.6 13.9 0.00 0.00 0.00 86 1016.9
20260508025927 54 247 6.1 16.5 0.00 0.00 0.00 86 1016.7
20260508025436 54 229 8.7 16.5 0.00 0.00 0.00 86 1016.7
20260508024923 54 232 7.8 13.9 0.00 0.00 0.00 85 1016.6
20260508024425 54 223 6.1 19.1 0.00 0.00 0.00 85 1016.7
20260508023933 54 306 9.6 19.1 0.00 0.00 0.00 85 1016.7
20260508023421 55 304 9.6 19.1 0.00 0.00 0.00 85 1016.7
20260508022958 55 220 7.8 20.0 0.00 0.00 0.00 85 1016.7
20260508022455 55 247 7.0 20.0 0.00 0.00 0.00 85 1016.7
20260508021920 55 268 9.6 21.7 0.00 0.00 0.00 85 1016.8
20260508021424 55 268 10.4 21.7 0.00 0.00 0.00 85 1016.8
20260508020946 55 244 8.7 19.1 0.00 0.00 0.00 84 1016.8
20260508020430 55 223 10.4 25.2 0.00 0.00 0.00 84 1016.8
20260508015938 55 294 11.3 25.2 0.00 0.00 0.00 84 1016.8
20260508015456 55 272 7.8 19.1 0.00 0.00 0.00 83 1016.7
20260508014923 55 258 9.6 24.3 0.00 0.00 0.00 83 1016.7
20260508014428 56 287 13.0 24.3 0.00 0.00 0.00 82 1016.7
20260508013930 56 323 11.3 20.9 0.00 0.00 0.00 82 1016.7
20260508013419 56 261 9.6 20.9 0.00 0.00 0.00 82 1016.7
20260508012924 57 296 8.7 20.9 0.00 0.00 0.00 81 1016.7
20260508012431 57 261 12.2 20.9 0.00 0.00 0.00 81 1016.7
20260508011939 57 270 8.7 18.2 0.00 0.00 0.00 81 1016.8
20260508011456 58 233 9.6 21.7 0.00 0.00 0.00 81 1016.8
20260508010922 57 294 8.7 21.7 0.00 0.00 0.00 81 1016.8
20260508010428 57 264 11.3 26.9 0.00 0.00 0.00 81 1016.8
20260508005929 57 280 12.2 26.9 0.00 0.00 0.00 82 1016.8
20260508005436 57 266 15.6 25.2 0.00 0.00 0.00 81 1016.8
20260508004925 58 249 13.0 21.7 0.00 0.00 0.00 80 1016.9
20260508004433 58 310 10.4 24.3 0.00 0.00 0.00 80 1016.9
20260508003941 57 275 11.3 27.8 0.00 0.00 0.00 80 1016.9
20260508003458 57 266 15.6 27.8 0.00 0.00 0.00 80 1017.0
20260508002946 58 258 9.6 24.3 0.00 0.00 0.00 80 1017.0
20260508002430 58 268 16.5 24.3 0.00 0.00 0.00 79 1017.0
20260508001935 58 287 8.7 20.9 0.00 0.00 0.00 79 1017.1
20260508001422 58 278 9.6 20.9 0.00 0.00 0.00 79 1017.0
20260508000931 58 290 12.2 20.9 0.00 0.00 0.00 80 1017.1
20260508000437 58 251 12.2 20.9 0.00 0.00 0.00 79 1017.0
20260507235921 58 276 9.6 17.4 0.00 0.00 0.00 79 1017.0
20260507235428 58 290 8.7 23.5 0.00 0.00 0.00 79 1017.2
20260507234931 58 280 13.0 23.5 0.00 0.00 0.00 78 1017.2
20260507234420 59 349 9.6 17.4 0.00 0.00 0.00 78 1017.1
20260507233949 59 224 7.0 17.4 0.00 0.00 0.00 79 1017.2
20260507233427 58 256 10.4 17.4 0.00 0.00 0.00 79 1017.1
20260507232934 58 301 7.8 20.0 0.00 0.00 0.00 79 1017.2
20260507232422 58 264 7.8 23.5 0.00 0.00 0.00 79 1017.2
20260507231929 58 251 13.9 23.5 0.00 0.00 0.00 79 1017.3
20260507231437 58 273 11.3 20.0 0.00 0.00 0.00 79 1017.4
20260507230941 58 283 12.2 21.7 0.00 0.00 0.00 79 1017.4
20260507230428 58 273 12.2 22.6 0.00 0.00 0.00 78 1017.5
20260507225935 58 283 13.9 24.3 0.00 0.00 0.00 78 1017.4
20260507225423 59 250 14.8 24.3 0.00 0.00 0.00 77 1017.5
20260507224929 60 311 9.6 22.6 0.00 0.00 0.00 77 1017.6
20260507224436 60 261 9.6 20.0 0.00 0.00 0.00 77 1017.5
20260507223924 60 275 8.7 17.4 0.00 0.00 0.00 78 1017.5
20260507223427 60 244 10.4 16.5 0.00 0.00 0.00 77 1017.6
20260507222933 60 256 7.8 18.2 0.00 0.00 0.00 78 1017.5
20260507222438 60 289 10.4 18.2 0.00 0.00 0.00 78 1017.7
20260507221954 59 287 13.0 18.2 0.00 0.00 0.00 78 1017.7
20260507221442 59 259 12.2 20.9 0.00 0.00 0.00 79 1017.8
20260507220927 59 287 13.9 20.9 0.00 0.00 0.00 78 1017.9
20260507220435 60 299 9.6 19.1 0.00 0.00 0.00 78 1017.9
20260507215937 60 230 12.2 18.2 0.00 0.00 0.00 76 1018.1
20260507215444 61 282 8.7 14.8 0.00 0.00 0.00 77 1018.2
20260507214932 61 234 8.7 18.2 0.00 0.00 0.00 76 1018.2
20260507214419 61 301 7.0 15.6 0.00 0.00 0.00 77 1018.1
20260507213927 61 254 7.8 15.6 0.00 0.00 0.00 77 1018.3
20260507213435 61 276 7.8 14.8 0.00 0.00 0.00 77 1018.3
20260507212922 60 270 7.8 14.8 0.00 0.00 0.00 78 1018.4
20260507212424 60 266 8.7 15.6 0.00 0.00 0.00 78 1018.5
20260507211930 60 254 8.7 17.4 0.00 0.00 0.00 78 1018.5
20260507211438 59 273 8.7 17.4 0.00 0.00 0.00 78 1018.6
20260507210924 60 280 9.6 16.5 0.00 0.00 0.00 77 1018.6
20260507210451 60 261 7.8 13.9 0.00 0.00 0.00 78 1018.5
20260507205935 60 226 6.1 14.8 0.00 0.00 0.00 78 1018.5
20260507205423 60 307 9.6 18.2 0.00 0.00 0.00 78 1018.6
20260507204927 60 206 8.7 14.8 0.00 0.00 0.00 77 1018.6
20260507204436 60 247 6.1 16.5 0.00 0.00 0.00 78 1018.7
20260507203923 60 325 7.8 16.5 0.00 0.00 0.00 78 1018.6
20260507203429 60 275 10.4 16.5 0.00 0.00 0.00 77 1018.7
20260507202938 60 247 7.0 15.6 0.00 0.00 0.00 77 1018.8
20260507202425 60 287 7.8 14.8 0.00 0.00 0.00 77 1018.8
20260507202000 60 337 7.0 13.9 0.00 0.00 0.00 77 1018.8
20260507201424 60 277 7.0 12.2 0.00 0.00 0.00 77 1018.8
20260507200932 60 276 4.3 12.2 0.00 0.00 0.00 78 1018.9
20260507200420 60 221 5.2 13.9 0.00 0.00 0.00 78 1019.0
20260507195925 60 274 6.1 11.3 0.00 0.00 0.00 78 1019.1
20260507195434 60 294 5.2 15.6 0.00 0.00 0.00 79 1019.1
20260507194923 59 273 6.1 15.6 0.00 0.00 0.00 79 1019.2
20260507194430 59 273 6.1 12.2 0.00 0.00 0.00 79 1019.2
20260507193938 59 278 4.3 12.2 0.00 0.00 0.00 79 1019.2
20260507193422 59 300 7.0 12.2 0.00 0.00 0.00 79 1019.3
20260507192929 59 244 5.2 10.4 0.00 0.00 0.00 80 1019.2
20260507192436 58 243 6.1 12.2 0.00 0.00 0.00 80 1019.2
20260507191923 58 324 8.7 12.2 0.00 0.00 0.00 81 1019.3
20260507191500 58 292 5.2 10.4 0.00 0.00 0.00 81 1019.4
20260507190947 57 277 7.0 12.2 0.00 0.00 0.00 81 1019.3
20260507190436 57 304 5.2 11.3 0.00 0.00 0.00 81 1019.4
20260507185929 58 329 7.0 11.3 0.00 0.00 0.00 80 1019.4
20260507185437 58 318 6.1 10.4 0.00 0.00 0.00 80 1019.4
20260507184952 57 182 6.1 10.4 0.00 0.00 0.00 81 1019.4
20260507184459 57 270 7.0 13.9 0.00 0.00 0.00 81 1019.5
20260507183925 57 264 8.7 13.9 0.00 0.00 0.00 81 1019.6
20260507183437 57 198 5.2 8.7 0.00 0.00 0.00 81 1019.6
20260507182928 56 314 4.3 10.4 0.00 0.00 0.00 81 1019.8
20260507182429 57 271 7.0 10.4 0.00 0.00 0.00 81 1019.9
20260507181937 57 303 6.1 10.4 0.00 0.00 0.00 81 1019.8
20260507181437 56 235 3.5 13.0 0.00 0.00 0.00 82 1019.8
20260507180931 56 270 6.1 9.6 0.00 0.00 0.00 82 1019.8
20260507180419 56 291 3.5 8.7 0.00 0.00 0.00 82 1019.8
20260507175927 56 184 4.3 8.7 0.00 0.00 0.00 82 1019.8
20260507175435 56 273 4.3 8.7 0.00 0.00 0.00 82 1019.8
20260507174922 56 303 7.0 10.4 0.00 0.00 0.00 82 1019.7
20260507174429 56 313 7.0 11.3 0.00 0.00 0.00 82 1019.7
20260507173934 56 263 3.5 11.3 0.00 0.00 0.00 82 1019.7
20260507173435 56 261 2.6 9.6 0.00 0.00 0.00 82 1019.7
20260507172919 56 276 3.5 8.7 0.00 0.00 0.00 82 1019.7
20260507172424 56 251 6.1 8.7 0.00 0.00 0.00 82 1019.7
20260507171933 56 205 2.6 7.8 0.00 0.00 0.00 83 1019.7
20260507171418 55 220 5.2 9.6 0.00 0.00 0.00 83 1019.7
20260507170925 55 205 3.5 8.7 0.00 0.00 0.00 83 1019.6
20260507170500 55 231 5.2 8.7 0.00 0.00 0.00 83 1019.6
20260507165939 55 235 3.5 7.8 0.00 0.00 0.00 83 1019.7
20260507165456 55 270 4.3 6.1 0.00 0.00 0.00 83 1019.6
20260507164923 55 34 1.7 7.0 0.00 0.00 0.00 84 1019.6
20260507164429 55 232 2.6 7.0 0.00 0.00 0.00 84 1019.6
20260507164004 55 268 3.5 6.1 0.00 0.00 0.00 84 1019.6
20260507163457 55 277 2.6 8.7 0.00 0.00 0.00 84 1019.6
20260507162941 54 252 3.5 8.7 0.00 0.00 0.00 85 1019.5
20260507162451 54 292 2.6 7.0 0.00 0.00 0.00 85 1019.5
20260507161936 54 320 2.6 8.7 0.00 0.00 0.00 85 1019.6
20260507161423 54 323 5.2 8.7 0.00 0.00 0.00 84 1019.6
20260507160950 54 337 5.2 9.6 0.00 0.00 0.00 84 1019.6
20260507160436 54 268 4.3 9.6 0.00 0.00 0.00 85 1019.5
20260507155921 54 302 3.5 7.0 0.00 0.00 0.00 85 1019.5
20260507155428 54 256 2.6 7.0 0.00 0.00 0.00 85 1019.5
20260507154931 54 196 3.5 7.8 0.00 0.00 0.00 85 1019.4
20260507154436 54 233 3.5 7.8 0.00 0.00 0.00 85 1019.5
20260507153923 54 360 2.6 6.1 0.00 0.00 0.00 86 1019.5
20260507153500 54 201 1.7 5.2 0.00 0.00 0.00 86 1019.5
20260507152955 54 268 1.7 5.2 0.00 0.00 0.00 86 1019.6
20260507152421 54 261 2.6 6.1 0.00 0.00 0.00 86 1019.5
20260507151931 54 254 3.5 5.2 0.00 0.00 0.00 86 1019.5
20260507151432 53 14 1.7 7.8 0.00 0.00 0.00 86 1019.5
20260507150936 53 265 3.5 7.8 0.00 0.00 0.00 86 1019.4
20260507150423 53 263 4.3 8.7 0.00 0.00 0.00 86 1019.5
20260507145929 53 263 3.5 6.1 0.00 0.00 0.00 86 1019.5
20260507145435 53 151 1.7 5.2 0.00 0.00 0.00 86 1019.5
20260507144921 53 211 2.6 5.2 0.00 0.00 0.00 86 1019.4
20260507144449 53 290 1.7 4.3 0.00 0.00 0.00 87 1019.4
20260507143929 53 327 1.7 5.2 0.00 0.00 0.00 86 1019.4
20260507143437 53 45 0.9 5.2 0.00 0.00 0.00 86 1019.4
20260507142921 53 295 1.7 7.0 0.00 0.00 0.00 86 1019.4
20260507142458 53 294 2.6 7.0 0.00 0.00 0.00 86 1019.4
20260507141942 53 313 0.9 6.1 0.00 0.00 0.00 86 1019.3
20260507141446 53 177 0.9 11.3 0.00 0.00 0.00 86 1019.3